Temp
11 12 11 11 10 10 10 10 10 10 10 10 10 10 10 9 9 10 11 13 13 12 13 14 14 15 15 15 16 17 14 14 15 16 17 19 19 21 22 21 22 22 22 23 26
11 11 12 11 11 10 10 10 10 10 10 10 10 9 9 9 10 12 13 13 12 12 12 13 14 15 14 15 15 14 13 14 16 17 17 18 18 19 19 19 20 21 22 23 24
10 10 11 12 11 10 10 10 10 10 10 10 10 10 10 10 11 14 12 12 12 12 12 13 14 14 13 14 15 14 13 15 16 17 17 17 17 18 17 17 19 20 20 20 22
10 10 10 10 11 10 10 10 10 10 10 10 9 9 9 10 13 12 12 12 12 12 12 13 14 13 13 13 15 13 15 15 15 16 16 15 16 16 16 17 18 19 19 19 19
10 10 10 11 11 10 9 9 9 9 9 9 9 9 9 11 13 12 12 12 12 13 13 14 13 13 12 14 15 14 15 16 16 16 15 16 15 15 15 16 17 18 18 18 19
9 9 9 10 11 10 9 9 9 9 9 9 9 9 10 11 13 12 12 12 13 13 13 13 13 14 13 13 13 14 14 14 15 15 15 14 15 15 15 16 16 17 17 18 19
9 9 9 10 10 9 9 9 9 9 9 8 8 9 11 13 13 12 12 12 13 13 14 14 13 12 13 12 14 14 12 13 13 14 14 15 13 13 15 15 15 16 17 17 18
9 9 9 9 9 9 8 9 9 9 8 8 9 9 10 12 12 12 12 12 12 12 13 13 13 12 12 12 12 11 11 10 13 14 15 14 11 14 15 15 15 15 16 17 17
9 9 9 9 9 9 8 8 8 8 8 8 9 10 11 11 11 12 13 13 13 13 12 13 13 11 11 10 9 10 8 10 12 14 14 14 13 15 15 15 15 16 16 16 17
8 8 8 9 9 8 8 8 8 8 8 9 10 9 10 11 13 13 13 13 13 13 12 11 11 9 9 8 7 8 8 10 10 12 13 12 12 13 13 15 15 15 16 16 17
8 8 8 9 10 8 8 8 9 9 10 10 10 11 12 13 12 12 13 12 13 12 10 11 9 8 10 11 11 10 9 9 11 13 12 12 12 14 14 14 14 15 16 16 17
8 8 10 10 9 7 8 9 12 10 9 10 11 12 12 12 12 13 12 11 11 9 10 9 8 10 12 12 12 11 10 9 11 12 12 11 11 13 14 15 14 15 15 16 17
8 8 9 8 7 7 7 9 10 10 10 9 11 11 12 12 12 13 12 12 11 10 10 9 11 13 12 11 11 10 9 9 10 12 11 10 10 11 13 14 16 16 15 15 15
7 8 7 8 8 7 7 8 9 9 9 9 10 12 11 12 11 13 13 12 11 10 11 10 12 12 12 11 11 7 11 10 10 9 9 12 10 12 14 15 15 16 14 13 15
7 8 7 8 8 7 9 9 9 10 11 11 11 11 12 11 12 11 12 11 10 11 11 9 11 11 11 11 10 8 10 9 9 9 9 11 11 11 15 14 15 15 15 15 17
7 8 8 7 8 8 8 8 9 9 10 10 11 10 11 11 12 12 11 11 11 10 10 10 12 11 11 12 11 10 9 9 8 9 10 12 11 11 10 11 12 15 15 14 14
7 8 7 7 9 7 8 9 9 10 11 9 10 11 9 10 12 12 12 10 10 9 9 10 10 12 9 9 10 10 9 11 10 10 11 10 10 11 9 10 10 13 12 13 13
8 8 7 6 8 8 9 8 10 11 10 13 11 12 8 11 11 12 11 11 11 9 8 8 9 10 9 9 9 8 9 11 12 13 12 11 12 10 10 11 11 11 12 12 12
7 6 6 6 7 8 9 9 10 10 12 11 10 8 10 11 10 11 8 11 12 11 9 10 11 13 11 10 9 10 11 10 11 12 13 11 11 10 9 8 11 12 12 11 11
7 6 6 6 7 8 9 10 11 12 12 12 10 11 10 10 10 9 12 12 12 12 11 9 9 11 12 10 10 9 11 11 11 13 13 12 11 11 9 8 11 11 11 11 11
7 7 5 6 7 9 8 11 11 12 13 12 13 13 12 11 11 10 11 12 12 12 11 10 9 12 12 10 9 10 11 12 12 12 13 12 11 10 9 9 11 11 10 10 10
6 6 5 6 7 8 9 11 10 11 12 12 13 12 13 13 12 9 9 12 12 12 10 11 10 10 11 14 12 13 11 13 12 12 12 11 11 11 10 10 11 10 10 10 10
5 5 5 5 8 8 10 11 11 11 12 12 12 13 13 13 11 12 8 13 12 12 11 11 10 10 11 13 14 12 14 14 14 13 11 12 11 14 13 12 11 10 10 10 10
6 6 5 6 8 10 11 11 10 11 12 12 12 13 12 13 13 12 7 13 13 12 12 11 12 11 11 11 11 12 15 14 12 12 11 11 11 13 12 12 12 11 9 9 10
7 7 7 7 8 10 12 12 11 10 12 12 11 12 9 12 13 12 9 11 13 14 13 13 11 14 14 14 13 13 14 13 12 13 11 12 12 12 12 12 12 12 11 10 10
9 8 9 8 9 10 10 11 12 11 12 11 11 12 11 11 10 12 12 11 11 13 14 14 12 13 13 14 13 12 12 13 12 11 13 12 12 12 12 11 11 11 11 11 10
9 9 9 9 9 10 11 12 12 11 11 11 12 11 11 11 12 11 12 12 12 12 12 13 12 11 12 14 14 10 11 13 13 14 13 11 12 12 11 10 10 10 10 10 10
Height
791 787 787 788 789 790 791 790 791 791 791 792 790 793 789 789 788 789 789 788 786 787 789 787 789 789 789 788 786 783 791 784 782 780 773 765 765 757 753 753 750 746 747 745 743
788 785 783 783 785 785 787 788 788 786 788 790 789 790 788 787 786 783 782 782 785 787 789 788 787 787 789 787 785 789 788 781 775 772 771 765 764 763 762 758 753 750 741 743 744
785 783 781 779 779 781 782 785 786 783 784 787 787 787 786 787 785 776 778 782 784 788 789 788 788 790 790 787 784 784 785 779 773 770 768 767 766 763 765 763 756 753 747 743 742
782 781 778 777 772 776 778 781 783 783 780 784 784 785 787 786 780 776 778 782 783 787 789 787 786 790 789 786 780 783 777 775 772 769 768 770 766 767 763 758 755 751 748 743 745
782 779 775 770 770 769 775 777 779 781 779 783 782 784 785 784 778 777 777 781 784 787 787 785 784 785 785 780 776 773 771 767 766 767 766 766 766 765 761 758 755 752 748 743 743
780 775 771 766 764 767 772 774 776 778 779 779 780 784 784 781 777 778 779 782 783 785 785 785 783 783 784 781 781 777 773 769 766 765 765 765 761 759 756 755 751 751 746 743 739
776 773 769 765 762 766 771 773 774 774 777 778 780 781 781 776 778 780 780 781 782 783 782 783 784 787 784 783 776 774 775 769 766 763 761 760 758 754 752 748 748 745 739 737 737
773 770 768 766 766 765 768 772 775 772 775 779 778 781 776 774 778 779 779 779 781 782 783 784 784 787 787 783 780 781 776 778 761 756 751 753 754 743 740 741 740 737 733 729 729
769 767 765 764 764 763 767 772 773 773 775 777 779 780 773 772 775 776 777 777 778 780 782 783 784 786 785 787 789 782 784 771 758 750 747 746 742 732 728 730 730 725 725 725 722
766 764 762 760 762 763 766 770 773 773 776 778 779 784 775 769 771 774 775 776 777 778 781 783 784 787 784 791 796 786 779 767 760 751 750 744 736 732 730 724 722 719 715 717 717
762 759 755 753 756 760 764 770 777 776 773 770 770 767 767 765 771 773 773 775 776 776 782 780 787 790 779 774 771 770 771 766 748 744 744 739 729 720 719 716 716 715 708 708 708
759 753 742 742 749 756 760 761 759 763 768 770 768 767 767 767 768 769 773 775 773 779 777 786 785 771 766 761 760 761 763 757 747 743 741 738 730 717 711 706 704 703 702 700 699
756 751 741 744 750 756 759 759 760 760 762 768 768 766 767 769 764 764 771 769 770 773 772 777 765 758 759 760 762 760 762 758 754 738 741 741 725 712 699 698 692 694 697 698 696
755 752 748 750 756 757 761 760 760 761 765 771 765 763 766 766 766 765 769 771 769 770 767 767 756 755 756 760 760 769 748 748 749 754 746 724 722 694 688 687 688 690 697 694 694
753 753 753 753 754 757 756 757 760 762 748 762 760 765 764 765 765 767 770 772 774 768 770 771 758 754 757 752 754 754 745 750 750 748 741 722 722 700 683 687 687 687 687 688 687
751 751 751 754 755 757 756 757 761 764 749 762 760 764 764 762 762 765 769 772 768 769 767 762 753 755 751 745 748 745 742 739 743 742 729 703 714 702 706 704 699 684 684 686 688
749 749 750 754 754 756 757 759 762 750 756 763 761 760 767 764 760 761 759 764 767 775 770 757 752 746 756 754 742 742 743 724 727 728 718 709 719 707 711 706 703 689 690 689 687
748 749 752 753 755 756 758 762 754 745 755 746 754 756 771 759 762 755 758 761 763 770 776 771 765 750 754 755 751 749 742 723 716 699 704 709 701 711 710 698 696 695 690 690 689
748 750 753 756 757 759 759 757 755 753 745 751 759 772 763 758 763 758 771 756 755 763 774 762 748 738 742 748 752 735 728 732 722 708 702 716 713 713 715 715 700 693 693 693 691
748 752 757 758 760 762 759 753 748 745 745 749 754 751 762 765 764 768 754 755 757 760 763 768 764 746 737 745 741 742 732 724 719 708 707 711 715 716 719 717 700 695 696 695 691
750 754 760 762 763 760 762 750 751 750 748 746 740 745 747 753 756 765 759 756 758 757 759 762 767 740 741 747 749 737 731 723 722 717 713 717 723 728 726 718 703 701 699 696 690
754 757 763 764 766 762 759 750 757 754 752 749 745 747 745 747 750 770 772 757 759 758 759 759 758 754 743 729 731 730 734 718 722 725 722 727 734 732 725 720 712 709 704 697 689
759 765 768 767 764 763 756 754 753 754 752 750 750 750 749 750 756 753 774 756 757 756 757 754 756 760 744 735 728 730 720 717 719 722 733 729 738 727 723 722 721 717 711 706 703
760 767 773 771 765 757 754 754 757 757 755 753 754 752 752 751 752 753 778 755 756 756 755 757 749 752 755 754 752 744 726 726 731 737 743 745 745 734 729 728 726 724 721 713 713
757 764 766 769 765 757 752 750 756 760 756 755 756 755 766 757 752 754 769 762 753 751 751 752 757 746 743 742 745 745 740 739 739 740 752 747 745 746 742 738 736 731 725 720 714
755 761 762 762 763 758 758 754 753 758 755 758 758 754 761 762 766 759 759 763 762 754 750 748 758 753 754 745 748 752 754 749 753 755 745 751 754 753 750 746 742 741 736 726 725
757 757 757 763 762 761 754 755 755 757 764 760 757 761 763 767 764 762 760 760 762 762 758 752 755 760 758 746 748 770 768 757 754 752 751 759 759 759 758 755 752 748 743 743 740
Wind_Speed
19 19 17 14 12 10 10 9 9 8 9 9 7 8 6 8 7 8 12 7 2 8 7 6 6 8 8 7 10 7 6 11 15 16 16 15 17 14 16 14 11 16 12 18 15
18 17 20 18 15 11 11 10 9 8 8 8 6 7 8 7 8 14 9 7 6 5 8 9 8 6 6 7 4 5 8 13 13 15 13 14 14 13 15 17 15 11 20 27 22
17 16 17 23 19 14 13 10 9 7 6 6 7 7 6 5 10 5 7 5 6 8 9 11 7 1 7 8 7 7 14 14 17 18 17 16 14 13 15 18 16 14 15 12 16
19 19 19 23 21 17 13 12 10 9 7 7 5 5 6 4 3 9 8 5 6 8 11 9 7 8 7 9 13 16 17 17 18 18 15 16 16 17 17 18 16 18 18 14 14
21 21 23 25 22 19 14 11 9 7 7 7 4 4 3 4 5 12 9 5 4 5 8 7 8 9 13 10 13 15 15 17 15 15 16 15 18 17 21 20 18 20 21 20 15
22 20 24 27 21 19 16 12 10 7 10 8 6 2 4 4 4 8 8 5 7 7 7 6 5 8 9 12 12 14 18 18 17 17 18 19 18 16 18 18 22 21 24 21 18
21 21 22 21 18 15 13 10 9 8 9 8 6 5 5 4 2 6 7 6 5 6 6 8 4 4 6 11 11 13 14 13 16 18 20 18 22 23 21 26 22 23 23 23 21
21 20 19 17 18 12 10 8 8 9 9 7 7 7 4 4 6 5 8 8 7 5 6 8 5 6 10 10 13 15 14 13 14 17 19 18 22 22 23 21 24 24 23 21 24
20 20 19 17 12 14 11 9 9 9 7 7 6 4 2 4 5 11 12 9 8 6 3 7 5 9 10 8 7 8 11 17 20 16 17 16 17 15 20 20 22 23 23 20 20
20 22 21 20 16 14 13 9 7 10 7 6 2 2 3 6 9 5 5 5 4 5 6 7 4 8 6 4 7 6 9 13 17 16 18 22 20 17 18 18 17 20 18 20 19
20 25 28 31 17 21 19 15 4 2 10 5 5 3 8 8 4 6 8 7 8 7 7 7 4 7 11 14 15 13 16 20 20 17 19 20 23 21 19 14 18 21 23 17 18
20 29 26 12 17 24 26 3 2 3 4 8 4 6 2 1 4 6 3 5 9 8 9 4 10 14 13 14 12 13 15 22 22 17 15 15 22 22 19 20 16 17 9 13 16
16 22 11 20 19 21 9 10 3 1 2 5 6 7 3 4 2 6 8 5 8 11 10 10 9 14 12 12 12 15 16 20 20 22 19 19 24 24 23 22 14 12 9 8 8
12 13 6 14 10 12 10 16 5 2 2 6 6 4 4 2 2 3 4 2 4 5 5 6 7 9 9 12 11 17 14 18 19 13 9 2 10 7 9 13 11 12 14 9 9
10 7 4 6 7 4 6 9 6 2 3 9 6 4 3 3 2 6 3 3 7 7 2 6 8 6 11 11 2 12 11 12 14 11 8 13 6 5 4 10 12 6 8 6 10
8 9 7 12 1 6 10 13 6 1 3 3 5 5 5 6 4 4 5 6 6 5 9 16 15 12 10 12 11 14 15 15 10 5 5 14 7 1 3 4 11 8 6 2 3
5 7 18 7 2 11 15 4 2 2 6 4 5 5 4 3 4 4 4 5 1 3 2 7 7 3 3 7 7 5 7 3 2 3 4 5 5 1 10 8 11 4 3 3 4
7 7 8 3 8 15 8 2 2 7 3 4 6 9 2 5 3 2 3 3 5 3 3 3 3 3 4 3 4 8 4 3 4 1 2 7 3 4 14 7 2 3 4 6 5
5 13 9 9 12 10 3 1 4 3 4 7 9 3 2 3 0 2 5 2 4 3 3 4 3 2 7 3 2 5 3 6 4 4 2 2 5 4 11 10 11 8 11 9 7
7 4 5 12 10 5 1 3 3 4 5 8 3 6 4 3 2 2 1 6 2 1 3 1 5 5 4 2 10 6 6 2 1 4 3 2 2 6 9 8 9 10 11 11 9
10 2 3 13 4 2 1 3 2 1 3 3 3 4 7 4 4 2 4 6 5 4 3 3 3 3 2 2 3 4 5 2 3 1 3 3 4 10 9 11 13 13 14 11 11
4 3 4 6 2 2 2 2 3 4 3 1 4 6 2 3 3 3 2 4 4 3 5 3 3 4 2 1 7 5 5 4 4 6 1 2 4 10 11 13 16 15 14 14 17
3 2 1 8 2 2 2 2 2 2 1 1 3 4 3 1 2 4 3 3 6 3 6 5 3 5 2 2 3 5 6 4 3 3 12 3 4 10 11 15 14 14 15 16 14
3 3 1 2 4 4 2 2 2 4 5 3 5 3 2 1 2 1 2 2 2 4 5 3 4 4 4 3 3 8 16 13 5 6 4 9 11 14 15 17 16 15 15 16 12
1 2 4 2 3 4 3 2 5 3 2 3 3 3 3 1 1 2 3 5 4 3 3 0 3 3 6 8 12 16 16 16 14 9 7 9 14 13 13 14 13 15 15 17 20
2 3 3 3 7 5 1 1 2 2 1 4 4 5 2 3 3 2 2 2 2 6 1 2 2 3 5 6 14 11 17 14 10 8 10 11 12 10 11 13 17 16 16 19 18
1 2 2 3 2 3 2 4 2 4 3 6 4 5 1 6 5 6 4 3 2 4 6 3 3 2 0 3 4 7 9 9 10 13 11 9 9 10 13 15 16 15 16 16 16
Wind_Direction
320 268 257 254 251 255 265 265 268 275 274 275 253 279 301 295 279 267 245 247 231 207 221 257 235 234 251 250 253 281 244 250 254 259 280 291 287 288 293 285 268 271 272 279 305
320 323 260 252 240 242 253 256 258 254 261 261 251 268 297 292 278 260 245 239 239 211 209 243 231 199 240 232 227 219 240 247 263 279 288 290 291 299 294 287 273 258 273 277 286
315 322 311 258 235 234 238 250 252 240 259 249 254 274 286 295 270 113 142 190 194 208 229 244 253 238 247 256 240 224 246 272 285 295 298 297 294 294 284 277 277 276 280 304 288
323 324 322 331 228 224 232 235 243 241 225 230 241 293 278 260 283 125 125 134 163 218 230 212 215 217 246 247 234 252 249 251 263 276 290 290 295 283 282 275 288 294 295 287 296
323 315 320 318 240 213 217 225 230 228 211 210 213 297 268 217 267 146 142 148 179 211 224 227 242 258 256 268 273 264 266 271 278 275 275 276 270 273 269 279 285 286 280 277 271
317 324 322 323 214 215 216 209 212 231 201 192 189 222 251 243 80 149 159 175 225 201 213 246 260 283 307 290 286 292 291 287 286 287 286 285 272 269 260 258 259 264 271 272 263
315 319 325 336 205 202 201 212 199 199 186 182 187 173 241 232 173 177 181 204 205 233 252 227 261 279 293 288 269 279 277 281 271 269 266 258 258 252 260 258 263 260 253 261 265
312 313 318 316 255 215 193 206 215 182 177 189 175 207 221 174 206 206 210 220 214 234 259 292 299 265 271 282 288 286 279 275 268 264 258 245 254 255 247 251 248 250 255 247 254
306 308 309 313 278 204 191 209 187 166 165 158 165 230 216 137 198 225 219 226 203 209 228 263 247 255 272 270 283 250 261 271 284 281 279 269 281 276 247 247 258 239 243 247 238
306 305 297 295 284 204 170 170 166 136 150 156 133 191 245 203 180 202 210 236 241 247 215 214 237 239 250 234 252 272 292 287 281 288 295 290 285 277 280 280 269 269 240 232 235
306 306 299 290 256 188 152 128 171 169 194 202 193 272 155 130 168 209 222 194 232 239 244 256 229 229 239 242 247 257 260 271 280 292 287 279 281 276 262 249 262 245 240 220 232
313 316 302 240 195 171 158 202 113 76 174 224 239 250 265 157 207 182 152 215 207 227 245 263 241 244 261 278 286 281 283 275 284 283 289 296 289 287 276 273 242 252 250 224 221
320 331 131 133 144 163 192 218 283 171 141 173 206 217 189 197 262 168 178 218 254 245 242 233 261 309 262 272 276 269 261 272 271 293 285 281 280 266 256 256 221 229 239 254 217
316 330 66 124 131 150 214 225 207 148 167 141 202 151 167 230 241 156 185 285 247 259 291 280 293 280 287 280 272 273 260 269 277 276 272 68 293 313 244 230 220 210 218 227 242
306 313 265 160 151 195 116 185 167 104 201 166 123 117 125 225 83 173 135 212 264 276 315 256 297 292 286 276 267 258 304 267 278 267 290 267 263 294 274 226 219 207 239 253 222
300 307 259 201 192 123 149 141 124 135 139 155 128 177 178 189 176 132 198 211 253 293 266 263 265 282 262 287 286 280 277 267 248 246 242 254 199 220 308 326 308 221 228 240 310
288 342 161 176 207 155 140 152 113 287 170 182 173 173 116 204 195 209 191 195 22 336 16 280 268 225 25 294 282 220 298 269 141 202 253 108 110 280 313 305 293 208 84 48 30
321 209 186 67 139 149 164 71 243 106 184 173 134 140 127 154 269 215 327 199 132 157 276 312 314 223 176 234 287 288 227 331 295 272 66 184 359 318 349 33 113 31 61 63 21
71 122 119 139 150 159 227 199 20 56 153 144 91 115 196 164 37 308 190 348 62 126 313 318 288 248 212 211 246 331 324 303 271 236 78 21 340 263 9 8 338 83 60 43 21
111 88 71 143 140 231 250 297 57 24 116 156 173 219 154 200 164 58 2 61 78 92 152 305 291 318 6 240 223 237 300 290 326 345 75 336 336 354 350 351 357 49 43 35 8
90 94 108 140 172 244 211 19 64 100 310 273 64 142 88 168 199 109 352 86 48 340 174 239 259 283 253 328 298 326 314 327 244 167 12 353 24 9 18 351 28 37 35 26 22
77 72 135 161 109 275 247 41 358 142 291 58 18 44 96 145 175 121 301 37 103 319 322 240 286 290 251 31 233 223 254 343 4 10 348 85 50 8 38 31 28 28 27 24 30
76 67 349 6 114 212 70 100 342 173 187 354 89 32 354 184 8 94 188 350 42 11 2 334 336 312 50 202 23 338 20 6 353 25 22 9 41 29 24 45 46 26 22 35 11
116 103 33 338 283 305 124 171 121 353 76 41 86 55 235 135 356 81 38 56 73 333 327 297 332 20 16 19 297 17 40 36 58 67 72 49 53 31 23 32 30 40 31 26 37
57 117 172 168 274 295 359 84 118 131 45 339 107 72 35 53 189 72 100 308 162 306 241 7 8 31 66 74 55 37 36 40 58 50 56 57 49 35 26 31 37 36 34 34 28
102 136 200 180 240 227 104 216 146 60 47 116 19 117 101 51 344 341 123 149 74 319 136 240 97 26 8 20 69 42 22 41 38 359 62 57 65 47 34 28 33 35 31 31 32
37 3 310 175 115 217 214 63 110 135 30 26 9 111 114 52 9 6 4 46 27 5 337 12 348 15 339 254 312 34 12 34 50 48 45 42 57 53 40 35 26 27 32 36 29